Погода в Державинске

Казахстан     51˚05′55″N   66˚18′52″E
темп.,
°C
ветер,
м/с
пор.,
м/с
влажн.,
%
обл.,
%
осадки,
мм/ч
давл.,
гПа
погр.,
м
17 января, вс
вс1700:00−12˚зюз589799 0.0 1016138
03:00−13˚юз5109989 0.0 1018140
06:00−12˚юз589895 0.1 1020126
09:00−14˚ююз699772 0.0 1020118
12:00−11˚ююз7129568 0.0 1021228
15:00−10˚юз7129567 0.0 1019290
18:00−10˚юз7129570 0.0 1018257
21:00−9˚юз7139391 0.0 1018281
18 января, пн
пн1800:00−12˚юз599658 0.0 1018146
03:00−12˚юз459577 0.0 101878
06:00−13˚з229476 0.0 101820
09:00−12˚в119188 0.0 101921
12:00−9˚в238894 0.0 1019125
15:00−8˚в3490100 0.0 1018176
18:00−9˚в3489100 0.0 101740
21:00−10˚в348487 0.0 101627
19 января, вт
вт1900:00−11˚в448168 0.0 101539
03:00−11˚в347940 0.0 101430
06:00−11˚всв347665 0.0 101323
09:00−12˚всв447541 0.0 101230
12:00−10˚в347828 0.0 101162
15:00−7˚ю238388 0.0 100982
18:00−9˚ююз348494 0.0 100849
21:00−9˚ююз4491100 0.0 100869
20 января, ср
ср2000:00−9˚ююз4896100 0.0 1008203
03:00−8˚юз71293100 0.4 1010435
06:00−12˚зюз81495100 0.6 1013370
09:00−17˚зюз7129496 0.0 1018231
12:00−17˚зюз599183 0.0 1020256
15:00−16˚зюз5790100 0.0 1022266
18:00−18˚зюз2392100 0.0 102229
21:00−18˚сз2390100 0.0 102235
21 января, чт
чт2100:00−19˚ссв2292100 0.0 102220
03:00−19˚св239299 0.0 102243
06:00−20˚ссв349499 0.0 102186
09:00−19˚св2394100 0.0 1020115
12:00−18˚ссв2292100 0.0 1021128
15:00−17˚ссз348994 0.0 1020222
18:00−19˚сз239397 0.0 102142
21:00−23˚зсз229567 0.0 102320